Regional Weather Roundup
Issued by NWS

Home | Current Version | Previous Version | Graphics & Text | Print | Product List | Glossary Off
Versions: 1 2 3 4 5 6 7 8 9 10 11 12 13 14 15 16 17 18 19 20 21 22 23 24 25 26 27 28 29 30 31 32 33 34 35 36 37 38 39 40 41 42 43 44 45 46 47 48 49 50

000
ASUS43 KIND 281109
RWRIN

WEATHER ROUNDUP FOR INDIANA
NATIONAL WEATHER SERVICE INDIANAPOLIS IN
700 AM EDT THU AUG 28 2014

NOTE: "FAIR" INDICATES FEW OR NO CLOUDS BELOW 12,000 FEET WITH NO
SIGNIFICANT WEATHER AND/OR OBSTRUCTIONS TO VISIBILITY.

* - STATION DOES NOT REPORT WEATHER SUCH AS PRECIPITATION OR FOG.

+ - STATION NOT QUALITY CONTROLLED BY THE NATIONAL WEATHER SERVICE.
    USE DATA WITH CAUTION...ESPECIALLY DEWPOINT AND RELATIVE
    HUMIDITY OBSERVATIONS.

INZ001>003-010>013-019-020-281200-
NORTHWEST INDIANA

CITY           SKY/WX    TMP DP  RH WIND       PRES   REMARKS
GARY /AIRPORT/ PTCLDY    66  59  77 VRB5      30.13S
KNOX *+        CLEAR     58  55  90 CALM      30.13S
LA PORTE +     PTCLDY    58  56  91 E6        30.15S
MICHIGAN CITY+ MOCLDY    57  55  94 CALM      30.15R
MONTICELLO +   PTCLDY    62  60  96 NE5       30.11S
RENSSELAER +   PTCLDY    61  61 100 NE5       30.13R
VALPARAISO     CLEAR     58  55  90 NE5       30.14S

$$

LMZ046-743>745-281200-
SOUTHERN LAKE MICHIGAN

STATION/POSITION TIME  TEMP WIND        PRES
                       AIR  DIR/SP/G
                 (UTC) (F)  (DEG/KT/KT) (MB)
MICHIGAN CITY    1100   60   40/  8/ 10   N/A

$$

INZ004-005-014>016-021>024-281200-
NORTH CENTRAL INDIANA

CITY           SKY/WX    TMP DP  RH WIND       PRES   REMARKS
ELKHART        CLOUDY    59  54  82 NE3       30.16
GOSHEN         CLEAR     59  55  87 CALM      30.14R
LOGANSPORT +   PTCLDY    61  59  94 CALM      30.13S
PERU/GRISSOM   MOCLDY    62  62 100 NE6       30.12S
ROCHESTER +    CLEAR     61  61 100 CALM      30.13S
SOUTH BEND     CLEAR     59  54  83 NE5       30.16R
WARSAW +       CLEAR     59  57  94 NE3       30.14S

$$

INZ006>009-017-018-025>027-281200-
NORTHEAST INDIANA

CITY           SKY/WX    TMP DP  RH WIND       PRES   REMARKS
ANGOLA *+      CLEAR     57  55  94 E3        30.15R
AUBURN +       CLEAR     59  55  88 NE3       30.15S
FORT WAYNE     MOCLDY    60  58  92 N3        30.14R
HUNTINGTON +   PTCLDY    60  59  98 N3        30.13S

$$

INZ028-029-035-036-043>045-051>053-281200-
WEST CENTRAL INDIANA

CITY           SKY/WX    TMP DP  RH WIND       PRES   REMARKS
GREENCASTLE +  PTCLDY    64  63  94 CALM      30.11R
LAFAYETTE      MOCLDY    64  61  90 NE6       30.11R
TERRE HAUTE    MOCLDY    67  63  87 NE5       30.08S

$$

INZ030>032-037>040-046>048-054>057-064-065-281200-
CENTRAL INDIANA

CITY           SKY/WX    TMP DP  RH WIND       PRES   REMARKS
CP ATTERBURY + CLEAR     63  61  94 CALM      30.09S
FRANKFORT +    MOCLDY   N/A N/A N/A NE3       30.12S
INDIANAPOLIS   PTCLDY    66  62  87 NE7       30.08S
-EAGLE CREEK   PTCLDY    67  61  81 NE3       30.10R
KOKOMO *+      PTCLDY    63  59  88 E6        30.13R
MARION +       PTCLDY    62  59  91 NE3       30.13S
MT COMFORT *+  CLEAR     63 N/A N/A N3        30.11R
SHELBYVILLE    CLEAR     64  61  90 N3        30.09R
ZIONSVILLE +   PTCLDY    63  59  88 NE5       30.12R

$$

INZ033-034-041-042-049-050-058-059-281200-
EAST CENTRAL INDIANA

CITY           SKY/WX    TMP DP  RH WIND       PRES   REMARKS
MUNCIE         CLEAR     62  60  93 NE3       30.12R

$$

INZ060-061-067>069-081>083-085>088-281200-
SOUTHWEST INDIANA

CITY           SKY/WX    TMP DP  RH WIND       PRES   REMARKS
EVANSVILLE     PTCLDY    74  71  91 NE6       30.04S
WASHINGTON +   PTCLDY    69  69 100 CALM      30.05S

$$

INZ062-063-066-070>080-084-089>092-281200-
SOUTH CENTRAL AND SOUTHEAST INDIANA

CITY           SKY/WX    TMP DP  RH WIND       PRES   REMARKS
BLOOMINGTON    PTCLDY    67  64  90 CALM      30.08S

$$




USA.gov is the U.S. government's official web portal to all federal, state and local government web resources and services.